Private Wetterstation Sandau
Wetterdaten: Mittwoch, 13.02.2013
Datum Zeit Temp. A. Feuchte A. Luftdruck Regen Wind Richtung Richtung Taupunkt Windchill
13.02.2013 00:01 -2,7 C 86 % 1018,8 hPa 0,0 l/m 4,7 km/h (1 Bft) O-NO 67 -4,7 C -4,5 C
13.02.2013 00:06 -2,7 C 86 % 1018,9 hPa 0,0 l/m 3,6 km/h (1 Bft) NO 45 -4,7 C -2,7 C
13.02.2013 00:11 -2,7 C 86 % 1019,1 hPa 0,0 l/m 4,0 km/h (1 Bft) NO 45 -4,7 C -2,7 C
13.02.2013 00:16 -2,8 C 86 % 1018,8 hPa 0,0 l/m 0,0 km/h (0 Bft) N-NO 22 -4,8 C -2,8 C
13.02.2013 00:21 -2,8 C 86 % 1018,9 hPa 0,0 l/m 2,2 km/h (1 Bft) O-NO 67 -4,8 C -2,8 C
13.02.2013 00:26 -2,8 C 86 % 1018,9 hPa 0,0 l/m 4,0 km/h (1 Bft) O-NO 67 -4,8 C -2,8 C
13.02.2013 00:31 -2,8 C 86 % 1019,0 hPa 0,0 l/m 4,0 km/h (1 Bft) NO 45 -4,8 C -2,8 C
13.02.2013 00:36 -2,9 C 86 % 1019,2 hPa 0,0 l/m 2,9 km/h (1 Bft) O-NO 67 -4,9 C -2,9 C
13.02.2013 00:41 -2,9 C 87 % 1019,0 hPa 0,0 l/m 1,1 km/h (1 Bft) O-NO 67 -4,8 C -2,9 C
13.02.2013 00:46 -2,9 C 87 % 1019,1 hPa 0,0 l/m 0,0 km/h (0 Bft) O-NO 67 -4,8 C -2,9 C
13.02.2013 00:51 -2,9 C 87 % 1019,2 hPa 0,0 l/m 1,8 km/h (1 Bft) N-NO 22 -4,8 C -2,9 C
13.02.2013 00:56 -3,0 C 87 % 1019,3 hPa 0,0 l/m 0,0 km/h (0 Bft) N-NO 22 -4,9 C -3,0 C
13.02.2013 01:01 -3,1 C 87 % 1019,4 hPa 0,0 l/m 0,0 km/h (0 Bft) N-NO 22 -4,9 C -3,1 C
13.02.2013 01:06 -3,1 C 86 % 1019,3 hPa 0,0 l/m 1,1 km/h (1 Bft) N-NO 22 -5,1 C -3,1 C
13.02.2013 01:11 -3,2 C 86 % 1019,3 hPa 0,0 l/m 0,0 km/h (0 Bft) N-NO 22 -5,2 C -3,2 C
13.02.2013 01:16 -3,3 C 86 % 1019,4 hPa 0,0 l/m 0,0 km/h (0 Bft) N-NO 22 -5,3 C -3,3 C
13.02.2013 01:21 -3,4 C 86 % 1019,6 hPa 0,0 l/m 0,0 km/h (0 Bft) N-NO 22 -5,4 C -3,4 C
13.02.2013 01:26 -3,5 C 86 % 1019,6 hPa 0,0 l/m 0,0 km/h (0 Bft) N-NO 22 -5,5 C -3,5 C
13.02.2013 01:31 -3,5 C 86 % 1019,7 hPa 0,0 l/m 0,0 km/h (0 Bft) N-NO 22 -5,5 C -3,5 C
13.02.2013 01:36 -3,6 C 86 % 1019,7 hPa 0,0 l/m 0,0 km/h (0 Bft) N-NO 22 -5,6 C -3,6 C
13.02.2013 01:41 -3,6 C 87 % 1019,7 hPa 0,0 l/m 0,0 km/h (0 Bft) N-NO 22 -5,4 C -3,6 C
13.02.2013 01:46 -3,6 C 87 % 1019,8 hPa 0,0 l/m 0,0 km/h (0 Bft) N-NO 22 -5,4 C -3,6 C
13.02.2013 01:51 -3,6 C 87 % 1020,0 hPa 0,0 l/m 0,0 km/h (0 Bft) N-NO 22 -5,4 C -3,6 C
13.02.2013 01:56 -3,6 C 87 % 1019,8 hPa 0,0 l/m 0,0 km/h (0 Bft) N-NO 22 -5,4 C -3,6 C
13.02.2013 02:01 -3,6 C 87 % 1019,8 hPa 0,0 l/m 0,0 km/h (0 Bft) N 360 -5,4 C -3,6 C
13.02.2013 02:06 -3,6 C 87 % 1019,9 hPa 0,0 l/m 2,5 km/h (1 Bft) N-NO 22 -5,4 C -3,6 C
13.02.2013 02:11 -3,5 C 88 % 1020,0 hPa 0,0 l/m 3,6 km/h (1 Bft) N-NO 22 -5,2 C -3,5 C
13.02.2013 02:16 -3,5 C 88 % 1019,8 hPa 0,0 l/m 2,9 km/h (1 Bft) N 360 -5,2 C -3,5 C
13.02.2013 02:21 -3,4 C 88 % 1020,0 hPa 0,0 l/m 3,2 km/h (1 Bft) N 360 -5,1 C -3,4 C
13.02.2013 02:26 -3,4 C 89 % 1020,1 hPa 0,0 l/m 0,0 km/h (0 Bft) N 360 -4,9 C -3,4 C
13.02.2013 02:31 -3,4 C 89 % 1020,0 hPa 0,0 l/m 3,6 km/h (1 Bft) N-NO 22 -4,9 C -3,4 C
13.02.2013 02:36 -3,5 C 89 % 1020,0 hPa 0,0 l/m 1,8 km/h (1 Bft) N-NO 22 -5,0 C -3,5 C
13.02.2013 02:41 -3,5 C 89 % 1020,1 hPa 0,0 l/m 1,1 km/h (1 Bft) N 360 -5,0 C -3,5 C
13.02.2013 02:46 -3,6 C 89 % 1020,1 hPa 0,0 l/m 0,0 km/h (0 Bft) N-NO 22 -5,1 C -3,6 C
13.02.2013 02:51 -3,6 C 89 % 1020,2 hPa 0,0 l/m 0,0 km/h (0 Bft) NO 45 -5,1 C -3,6 C
13.02.2013 02:56 -3,6 C 89 % 1020,0 hPa 0,0 l/m 2,2 km/h (1 Bft) N-NO 22 -5,1 C -3,6 C
13.02.2013 03:01 -3,6 C 89 % 1020,1 hPa 0,0 l/m 2,2 km/h (1 Bft) N-NO 22 -5,1 C -3,6 C
13.02.2013 03:06 -3,7 C 89 % 1020,2 hPa 0,0 l/m 0,0 km/h (0 Bft) N-NO 22 -5,2 C -3,7 C
13.02.2013 03:11 -3,6 C 89 % 1020,3 hPa 0,0 l/m 0,0 km/h (0 Bft) N-NO 22 -5,1 C -3,6 C
13.02.2013 03:16 -3,7 C 89 % 1020,2 hPa 0,0 l/m 0,0 km/h (0 Bft) N-NO 22 -5,2 C -3,7 C
13.02.2013 03:21 -3,7 C 89 % 1020,3 hPa 0,0 l/m 0,0 km/h (0 Bft) N-NO 22 -5,2 C -3,7 C
13.02.2013 03:26 -3,7 C 89 % 1020,3 hPa 0,0 l/m 1,4 km/h (1 Bft) N-NO 22 -5,2 C -3,7 C
13.02.2013 03:31 -3,6 C 89 % 1020,4 hPa 0,0 l/m 1,4 km/h (1 Bft) N 360 -5,1 C -3,6 C
13.02.2013 03:36 -3,6 C 89 % 1020,1 hPa 0,0 l/m 1,4 km/h (1 Bft) N 360 -5,1 C -3,6 C
13.02.2013 03:41 -3,5 C 89 % 1020,3 hPa 0,0 l/m 4,0 km/h (1 Bft) NW 315 -5,0 C -3,5 C
13.02.2013 03:46 -3,5 C 89 % 1020,6 hPa 0,0 l/m 2,5 km/h (1 Bft) N-NW 337 -5,0 C -3,5 C
13.02.2013 03:51 -3,6 C 89 % 1020,6 hPa 0,0 l/m 0,0 km/h (0 Bft) N-NW 337 -5,1 C -3,6 C
13.02.2013 03:56 -3,6 C 89 % 1020,6 hPa 0,0 l/m 0,0 km/h (0 Bft) N 360 -5,1 C -3,6 C
13.02.2013 04:01 -3,6 C 89 % 1020,6 hPa 0,0 l/m 0,0 km/h (0 Bft) N-NO 22 -5,1 C -3,6 C
13.02.2013 04:06 -3,7 C 89 % 1020,5 hPa 0,0 l/m 0,0 km/h (0 Bft) N-NO 22 -5,2 C -3,7 C
13.02.2013 04:11 -3,7 C 89 % 1020,7 hPa 0,0 l/m 2,5 km/h (1 Bft) N-NO 22 -5,2 C -3,7 C
13.02.2013 04:16 -3,7 C 89 % 1020,9 hPa 0,0 l/m 1,4 km/h (1 Bft) NW 315 -5,2 C -3,7 C
13.02.2013 04:21 -3,8 C 89 % 1021,0 hPa 0,0 l/m 2,9 km/h (1 Bft) N-NW 337 -5,3 C -3,8 C
13.02.2013 04:26 -3,9 C 89 % 1021,0 hPa 0,0 l/m 2,5 km/h (1 Bft) N-NW 337 -5,4 C -3,9 C
13.02.2013 04:31 -3,9 C 89 % 1020,9 hPa 0,0 l/m 0,0 km/h (0 Bft) N-NW 337 -5,4 C -3,9 C
13.02.2013 04:36 -3,9 C 89 % 1021,0 hPa 0,0 l/m 1,8 km/h (1 Bft) N 360 -5,4 C -3,9 C
13.02.2013 04:41 -4,1 C 89 % 1021,0 hPa 0,0 l/m 0,0 km/h (0 Bft) N 360 -5,6 C -4,1 C
13.02.2013 04:46 -4,1 C 89 % 1021,0 hPa 0,0 l/m 0,0 km/h (0 Bft) N 360 -5,6 C -4,1 C
13.02.2013 04:51 -4,1 C 89 % 1021,0 hPa 0,0 l/m 0,0 km/h (0 Bft) N-NW 337 -5,6 C -4,1 C
13.02.2013 04:56 -4,1 C 89 % 1021,0 hPa 0,0 l/m 1,8 km/h (1 Bft) N 360 -5,6 C -4,1 C
13.02.2013 05:01 -4,1 C 90 % 1021,1 hPa 0,0 l/m 3,2 km/h (1 Bft) N 360 -5,5 C -4,1 C
13.02.2013 05:06 -4,1 C 90 % 1021,0 hPa 0,0 l/m 4,7 km/h (1 Bft) N-NO 22 -5,5 C -6,1 C
13.02.2013 05:11 -4,1 C 90 % 1021,0 hPa 0,0 l/m 1,8 km/h (1 Bft) N 360 -5,5 C -4,1 C
13.02.2013 05:16 -4,1 C 90 % 1021,1 hPa 0,0 l/m 2,5 km/h (1 Bft) N-NO 22 -5,5 C -4,1 C
13.02.2013 05:21 -4,1 C 90 % 1021,2 hPa 0,0 l/m 4,0 km/h (1 Bft) N-NW 337 -5,5 C -4,1 C
13.02.2013 05:26 -4,1 C 90 % 1021,1 hPa 0,0 l/m 3,6 km/h (1 Bft) N-NO 22 -5,5 C -4,1 C
13.02.2013 05:31 -4,1 C 91 % 1021,2 hPa 0,0 l/m 2,5 km/h (1 Bft) N 360 -5,3 C -4,1 C
13.02.2013 05:36 -4,2 C 91 % 1021,2 hPa 0,0 l/m 2,5 km/h (1 Bft) N 360 -5,4 C -4,2 C
13.02.2013 05:41 -4,2 C 91 % 1021,3 hPa 0,0 l/m 7,2 km/h (2 Bft) N 360 -5,4 C -7,4 C
13.02.2013 05:46 -4,3 C 91 % 1021,5 hPa 0,0 l/m 4,0 km/h (1 Bft) N-NO 22 -5,5 C -4,3 C
13.02.2013 05:51 -4,4 C 91 % 1021,4 hPa 0,0 l/m 4,3 km/h (1 Bft) N 360 -5,6 C -4,4 C
13.02.2013 05:56 -4,5 C 91 % 1021,5 hPa 0,0 l/m 1,8 km/h (1 Bft) N 360 -5,7 C -4,5 C
13.02.2013 06:01 -4,6 C 91 % 1021,6 hPa 0,0 l/m 3,2 km/h (1 Bft) N-NO 22 -5,8 C -4,6 C
13.02.2013 06:06 -4,7 C 90 % 1021,6 hPa 0,0 l/m 2,2 km/h (1 Bft) N-NO 22 -6,1 C -4,7 C
13.02.2013 06:11 -4,8 C 90 % 1021,7 hPa 0,0 l/m 1,8 km/h (1 Bft) N-NO 22 -6,2 C -4,8 C
13.02.2013 06:16 -4,9 C 90 % 1021,8 hPa 0,0 l/m 0,0 km/h (0 Bft) N-NO 22 -6,3 C -4,9 C
13.02.2013 06:21 -5,0 C 90 % 1021,8 hPa 0,0 l/m 0,0 km/h (0 Bft) N-NO 22 -6,4 C -5,0 C
13.02.2013 06:26 -5,0 C 90 % 1021,9 hPa 0,0 l/m 3,6 km/h (1 Bft) N-NO 22 -6,4 C -5,0 C
13.02.2013 06:31 -5,1 C 90 % 1021,9 hPa 0,0 l/m 1,4 km/h (1 Bft) N-NO 22 -6,5 C -5,1 C
13.02.2013 06:36 -5,1 C 90 % 1022,0 hPa 0,0 l/m 1,1 km/h (1 Bft) N-NO 22 -6,5 C -5,1 C
13.02.2013 06:41 -5,2 C 90 % 1022,0 hPa 0,0 l/m 0,0 km/h (0 Bft) N-NO 22 -6,6 C -5,2 C
13.02.2013 06:46 -5,3 C 90 % 1022,3 hPa 0,0 l/m 3,6 km/h (1 Bft) N 360 -6,7 C -5,3 C
13.02.2013 06:51 -5,5 C 90 % 1022,4 hPa 0,0 l/m 6,8 km/h (2 Bft) N-NO 22 -6,9 C -8,7 C
13.02.2013 06:56 -5,6 C 90 % 1022,3 hPa 0,0 l/m 5,8 km/h (2 Bft) N 360 -7,0 C -8,4 C
13.02.2013 07:01 -5,7 C 90 % 1022,4 hPa 0,0 l/m 2,9 km/h (1 Bft) O-NO 67 -7,1 C -5,7 C
13.02.2013 07:06 -5,7 C 90 % 1022,4 hPa 0,0 l/m 7,2 km/h (2 Bft) N-NO 22 -7,1 C -9,1 C
13.02.2013 07:11 -5,8 C 90 % 1022,6 hPa 0,0 l/m 5,8 km/h (2 Bft) N 360 -7,2 C -8,6 C
13.02.2013 07:16 -5,8 C 90 % 1022,6 hPa 0,0 l/m 2,9 km/h (1 Bft) N-NO 22 -7,2 C -5,8 C
13.02.2013 07:21 -5,9 C 90 % 1022,6 hPa 0,0 l/m 1,4 km/h (1 Bft) NO 45 -7,3 C -5,9 C
13.02.2013 07:26 -5,8 C 91 % 1022,8 hPa 0,0 l/m 3,6 km/h (1 Bft) N-NO 22 -7,0 C -5,8 C
13.02.2013 07:31 -5,8 C 91 % 1022,8 hPa 0,0 l/m 0,0 km/h (0 Bft) N-NO 22 -7,0 C -5,8 C
13.02.2013 07:36 -5,7 C 91 % 1022,9 hPa 0,0 l/m 2,2 km/h (1 Bft) NO 45 -6,9 C -5,7 C
13.02.2013 07:41 -5,7 C 91 % 1022,8 hPa 0,0 l/m 2,2 km/h (1 Bft) NO 45 -6,9 C -5,7 C
13.02.2013 07:46 -5,6 C 91 % 1023,0 hPa 0,0 l/m 1,4 km/h (1 Bft) N-NO 22 -6,8 C -5,6 C
13.02.2013 07:51 -5,6 C 91 % 1023,1 hPa 0,0 l/m 0,0 km/h (0 Bft) O-NO 67 -6,8 C -5,6 C
13.02.2013 07:56 -5,5 C 91 % 1023,1 hPa 0,0 l/m 0,0 km/h (0 Bft) N-NO 22 -6,7 C -5,5 C
13.02.2013 08:01 -5,5 C 91 % 1023,2 hPa 0,0 l/m 1,8 km/h (1 Bft) NO 45 -6,7 C -5,5 C
13.02.2013 08:06 -5,4 C 91 % 1023,1 hPa 0,0 l/m 0,0 km/h (0 Bft) N-NO 22 -6,6 C -5,4 C
13.02.2013 08:11 -5,4 C 91 % 1023,4 hPa 0,0 l/m 2,5 km/h (1 Bft) NO 45 -6,6 C -5,4 C
13.02.2013 08:16 -5,2 C 91 % 1023,5 hPa 0,0 l/m 3,2 km/h (1 Bft) O-NO 67 -6,4 C -5,2 C
13.02.2013 08:21 -5,2 C 92 % 1023,6 hPa 0,0 l/m 1,4 km/h (1 Bft) O-NO 67 -6,3 C -5,2 C
13.02.2013 08:26 -5,1 C 92 % 1023,6 hPa 0,0 l/m 0,0 km/h (0 Bft) N-NO 22 -6,2 C -5,1 C
13.02.2013 08:31 -5,1 C 92 % 1023,8 hPa 0,0 l/m 0,0 km/h (0 Bft) O-NO 67 -6,2 C -5,1 C
13.02.2013 08:36 -5,0 C 92 % 1023,9 hPa 0,0 l/m 0,0 km/h (0 Bft) N-NO 22 -6,1 C -5,0 C
13.02.2013 08:41 -4,9 C 92 % 1023,9 hPa 0,0 l/m 4,0 km/h (1 Bft) N 360 -6,0 C -4,9 C
13.02.2013 08:46 -4,9 C 92 % 1023,9 hPa 0,0 l/m 3,2 km/h (1 Bft) NW 315 -6,0 C -4,9 C
13.02.2013 08:51 -4,9 C 92 % 1023,8 hPa 0,0 l/m 6,1 km/h (2 Bft) N-NO 22 -6,0 C -7,7 C
13.02.2013 08:56 -4,9 C 92 % 1023,9 hPa 0,0 l/m 4,0 km/h (1 Bft) N-NO 22 -6,0 C -4,9 C
13.02.2013 09:01 -4,9 C 92 % 1024,0 hPa 0,0 l/m 7,2 km/h (2 Bft) N-NO 22 -6,0 C -8,2 C
13.02.2013 09:06 -4,9 C 92 % 1023,9 hPa 0,0 l/m 7,9 km/h (2 Bft) N-NO 22 -6,0 C -8,5 C
13.02.2013 09:11 -4,8 C 92 % 1024,0 hPa 0,0 l/m 2,5 km/h (1 Bft) N-NO 22 -5,9 C -4,8 C
13.02.2013 09:16 -4,7 C 92 % 1023,9 hPa 0,0 l/m 5,8 km/h (2 Bft) N-NO 22 -5,8 C -7,3 C
13.02.2013 09:21 -4,7 C 92 % 1024,0 hPa 0,0 l/m 4,7 km/h (1 Bft) N 360 -5,8 C -6,8 C
13.02.2013 09:26 -4,6 C 92 % 1024,0 hPa 0,0 l/m 4,7 km/h (1 Bft) N-NO 22 -5,7 C -6,6 C
13.02.2013 09:31 -4,5 C 92 % 1024,0 hPa 0,0 l/m 3,2 km/h (1 Bft) N 360 -5,6 C -4,5 C
13.02.2013 09:36 -4,4 C 92 % 1024,0 hPa 0,0 l/m 3,2 km/h (1 Bft) N 360 -5,5 C -4,4 C
13.02.2013 09:41 -4,4 C 92 % 1024,1 hPa 0,0 l/m 5,0 km/h (1 Bft) N-NO 22 -5,5 C -6,6 C
13.02.2013 09:46 -4,2 C 92 % 1024,4 hPa 0,0 l/m 7,6 km/h (2 Bft) N-NO 22 -5,3 C -7,5 C
13.02.2013 09:51 -4,2 C 93 % 1024,4 hPa 0,0 l/m 6,5 km/h (2 Bft) N-NO 22 -5,2 C -7,1 C
13.02.2013 09:56 -4,1 C 93 % 1024,4 hPa 0,0 l/m 4,3 km/h (1 Bft) N 360 -5,1 C -4,1 C
13.02.2013 10:01 -3,9 C 93 % 1024,4 hPa 0,0 l/m 2,5 km/h (1 Bft) O-NO 67 -4,9 C -3,9 C
13.02.2013 10:06 -3,8 C 93 % 1024,6 hPa 0,0 l/m 0,0 km/h (0 Bft) NO 45 -4,8 C -3,8 C
13.02.2013 10:11 -3,6 C 93 % 1024,7 hPa 0,0 l/m 3,2 km/h (1 Bft) NO 45 -4,6 C -3,6 C
13.02.2013 10:16 -3,5 C 93 % 1024,9 hPa 0,0 l/m 1,4 km/h (1 Bft) NO 45 -4,5 C -3,5 C
13.02.2013 10:21 -3,4 C 93 % 1024,9 hPa 0,0 l/m 2,2 km/h (1 Bft) NO 45 -4,4 C -3,4 C
13.02.2013 10:26 -3,2 C 93 % 1024,9 hPa 0,0 l/m 2,9 km/h (1 Bft) N-NO 22 -4,2 C -3,2 C
13.02.2013 10:31 -3,2 C 93 % 1024,9 hPa 0,0 l/m 4,7 km/h (1 Bft) N-NO 22 -4,2 C -5,1 C
13.02.2013 10:36 -3,2 C 93 % 1024,9 hPa 0,0 l/m 4,7 km/h (1 Bft) N 360 -4,2 C -5,1 C
13.02.2013 10:41 -3,1 C 93 % 1025,1 hPa 0,0 l/m 1,4 km/h (1 Bft) N-NO 22 -4,1 C -3,1 C
13.02.2013 10:46 -3,0 C 93 % 1025,1 hPa 0,0 l/m 3,6 km/h (1 Bft) N 360 -4,0 C -3,0 C
13.02.2013 10:51 -3,0 C 93 % 1025,1 hPa 0,0 l/m 3,2 km/h (1 Bft) N-NO 22 -4,0 C -3,0 C
13.02.2013 10:56 -2,7 C 92 % 1025,1 hPa 0,0 l/m 3,2 km/h (1 Bft) NW 315 -3,8 C -2,7 C
13.02.2013 11:01 -2,7 C 92 % 1025,2 hPa 0,0 l/m 3,6 km/h (1 Bft) N-NW 337 -3,8 C -2,7 C
13.02.2013 11:06 -2,6 C 92 % 1025,3 hPa 0,0 l/m 2,2 km/h (1 Bft) N 360 -3,7 C -2,6 C
13.02.2013 11:11 -2,5 C 92 % 1025,3 hPa 0,0 l/m 3,2 km/h (1 Bft) N 360 -3,6 C -2,5 C
13.02.2013 11:16 -2,4 C 92 % 1025,4 hPa 0,0 l/m 1,1 km/h (1 Bft) N-NO 22 -3,5 C -2,4 C
13.02.2013 11:21 -2,3 C 92 % 1025,4 hPa 0,0 l/m 2,5 km/h (1 Bft) N-NO 22 -3,4 C -2,3 C
13.02.2013 11:26 -2,1 C 92 % 1025,4 hPa 0,0 l/m 1,1 km/h (1 Bft) N-NW 337 -3,2 C -2,1 C
13.02.2013 11:31 -2,1 C 92 % 1025,4 hPa 0,0 l/m 0,0 km/h (0 Bft) NO 45 -3,2 C -2,1 C
13.02.2013 11:36 -1,9 C 92 % 1025,5 hPa 0,0 l/m 1,4 km/h (1 Bft) O-NO 67 -3,0 C -1,9 C
13.02.2013 11:41 -1,6 C 92 % 1025,4 hPa 0,0 l/m 0,0 km/h (0 Bft) SO 135 -2,7 C -1,6 C
13.02.2013 11:46 -1,2 C 92 % 1025,6 hPa 0,0 l/m 0,0 km/h (0 Bft) SO 135 -2,3 C -1,2 C
13.02.2013 11:51 -0,8 C 92 % 1025,7 hPa 0,0 l/m 0,0 km/h (0 Bft) O 90 -1,9 C -0,8 C
13.02.2013 11:56 -0,7 C 92 % 1025,7 hPa 0,0 l/m 1,1 km/h (1 Bft) O 90 -1,8 C -0,7 C
13.02.2013 12:01 -0,7 C 92 % 1025,7 hPa 0,0 l/m 0,0 km/h (0 Bft) O 90 -1,8 C -0,7 C
13.02.2013 12:06 -0,5 C 91 % 1025,6 hPa 0,0 l/m 0,0 km/h (0 Bft) O 90 -1,8 C -0,5 C
13.02.2013 12:11 -0,4 C 91 % 1025,5 hPa 0,0 l/m 0,0 km/h (0 Bft) O-NO 67 -1,7 C -0,4 C
13.02.2013 12:16 -0,3 C 91 % 1025,5 hPa 0,0 l/m 0,0 km/h (0 Bft) O-NO 67 -1,6 C -0,3 C
13.02.2013 12:21 -0,4 C 90 % 1025,6 hPa 0,0 l/m 0,0 km/h (0 Bft) N 360 -1,8 C -0,4 C
13.02.2013 12:26 -0,4 C 90 % 1025,5 hPa 0,0 l/m 1,1 km/h (1 Bft) N-NO 22 -1,8 C -0,4 C
13.02.2013 12:31 -0,6 C 90 % 1025,6 hPa 0,0 l/m 2,2 km/h (1 Bft) N 360 -2,0 C -0,6 C
13.02.2013 12:36 -0,7 C 89 % 1025,5 hPa 0,0 l/m 6,1 km/h (2 Bft) N-NO 22 -2,3 C -2,9 C
13.02.2013 12:41 -0,8 C 89 % 1025,6 hPa 0,0 l/m 2,2 km/h (1 Bft) N-NO 22 -2,4 C -0,8 C
13.02.2013 12:46 -0,8 C 89 % 1025,8 hPa 0,0 l/m 1,8 km/h (1 Bft) NW 315 -2,4 C -0,8 C
13.02.2013 12:51 -0,7 C 89 % 1025,9 hPa 0,0 l/m 1,8 km/h (1 Bft) W-NW 292 -2,3 C -0,7 C
13.02.2013 12:56 -0,5 C 89 % 1025,9 hPa 0,0 l/m 0,0 km/h (0 Bft) NW 315 -2,1 C -0,5 C
13.02.2013 13:01 -0,4 C 89 % 1025,7 hPa 0,0 l/m 0,0 km/h (0 Bft) W-NW 292 -2,0 C -0,4 C
13.02.2013 13:06 -0,2 C 89 % 1025,9 hPa 0,0 l/m 4,7 km/h (1 Bft) NW 315 -1,8 C -1,7 C
13.02.2013 13:11 -0,2 C 88 % 1025,9 hPa 0,0 l/m 2,2 km/h (1 Bft) W 270 -1,9 C -0,2 C
13.02.2013 13:16 -0,1 C 88 % 1025,9 hPa 0,0 l/m 1,1 km/h (1 Bft) W-NW 292 -1,8 C -0,1 C
13.02.2013 13:21 0,2 C 89 % 1026,0 hPa 0,0 l/m 4,0 km/h (1 Bft) NW 315 -1,4 C 0,2 C
13.02.2013 13:26 0,4 C 89 % 1025,9 hPa 0,0 l/m 0,0 km/h (0 Bft) W-NW 292 -1,2 C 0,4 C
13.02.2013 13:31 0,7 C 88 % 1026,0 hPa 0,0 l/m 3,2 km/h (1 Bft) W-SW 247 -1,1 C 0,7 C
13.02.2013 13:36 0,9 C 87 % 1025,9 hPa 0,0 l/m 5,8 km/h (2 Bft) W-NW 292 -1,0 C -0,9 C
13.02.2013 13:41 0,9 C 87 % 1026,0 hPa 0,0 l/m 0,0 km/h (0 Bft) W 270 -1,0 C 0,9 C
13.02.2013 13:46 0,9 C 86 % 1025,9 hPa 0,0 l/m 0,0 km/h (0 Bft) W-NW 292 -1,2 C 0,9 C
13.02.2013 13:51 0,9 C 86 % 1026,0 hPa 0,0 l/m 1,1 km/h (1 Bft) W-NW 292 -1,2 C 0,9 C
13.02.2013 13:56 1,1 C 86 % 1026,1 hPa 0,0 l/m 2,2 km/h (1 Bft) W-SW 247 -1,0 C 1,1 C
13.02.2013 14:01 1,2 C 86 % 1026,1 hPa 0,0 l/m 3,2 km/h (1 Bft) W 270 -0,9 C 1,2 C
13.02.2013 14:06 1,3 C 85 % 1026,1 hPa 0,0 l/m 2,5 km/h (1 Bft) W-NW 292 -0,9 C 1,3 C
13.02.2013 14:11 1,3 C 85 % 1026,2 hPa 0,0 l/m 6,1 km/h (2 Bft) W 270 -0,9 C -0,6 C
13.02.2013 14:16 1,3 C 84 % 1026,1 hPa 0,0 l/m 2,5 km/h (1 Bft) W-NW 292 -1,1 C 1,3 C
13.02.2013 14:21 1,3 C 84 % 1026,1 hPa 0,0 l/m 3,6 km/h (1 Bft) NW 315 -1,1 C 1,3 C
13.02.2013 14:26 1,3 C 84 % 1026,1 hPa 0,0 l/m 4,7 km/h (1 Bft) W-NW 292 -1,1 C 0,0 C
13.02.2013 14:31 1,3 C 84 % 1026,1 hPa 0,0 l/m 1,4 km/h (1 Bft) N 360 -1,1 C 1,3 C
13.02.2013 14:36 1,3 C 84 % 1026,1 hPa 0,0 l/m 1,8 km/h (1 Bft) NW 315 -1,1 C 1,3 C
13.02.2013 14:41 1,3 C 84 % 1026,3 hPa 0,0 l/m 5,0 km/h (1 Bft) W-NW 292 -1,1 C -0,1 C
13.02.2013 14:46 1,3 C 84 % 1026,3 hPa 0,0 l/m 1,8 km/h (1 Bft) W 270 -1,1 C 1,3 C
13.02.2013 14:51 1,2 C 84 % 1026,3 hPa 0,0 l/m 6,5 km/h (2 Bft) W-NW 292 -1,2 C -0,8 C
13.02.2013 14:56 1,1 C 84 % 1026,4 hPa 0,0 l/m 7,2 km/h (2 Bft) W-NW 292 -1,3 C -1,2 C
13.02.2013 15:01 1,0 C 84 % 1026,4 hPa 0,0 l/m 7,6 km/h (2 Bft) NW 315 -1,4 C -1,4 C
13.02.2013 15:06 0,9 C 84 % 1026,4 hPa 0,0 l/m 2,9 km/h (1 Bft) N 360 -1,5 C 0,9 C
13.02.2013 15:11 0,9 C 84 % 1026,5 hPa 0,0 l/m 0,0 km/h (0 Bft) W 270 -1,5 C 0,9 C
13.02.2013 15:16 1,0 C 84 % 1026,5 hPa 0,0 l/m 3,6 km/h (1 Bft) W-NW 292 -1,4 C 1,0 C
13.02.2013 15:21 1,1 C 84 % 1026,6 hPa 0,0 l/m 1,1 km/h (1 Bft) N-NW 337 -1,3 C 1,1 C
13.02.2013 15:26 1,3 C 84 % 1026,7 hPa 0,0 l/m 2,9 km/h (1 Bft) W-NW 292 -1,1 C 1,3 C
13.02.2013 15:31 1,2 C 84 % 1026,7 hPa 0,0 l/m 2,5 km/h (1 Bft) W-NW 292 -1,2 C 1,2 C
13.02.2013 15:36 1,2 C 84 % 1026,7 hPa 0,0 l/m 0,0 km/h (0 Bft) W 270 -1,2 C 1,2 C
13.02.2013 15:41 1,1 C 84 % 1026,7 hPa 0,0 l/m 0,0 km/h (0 Bft) N 360 -1,3 C 1,1 C
13.02.2013 15:46 0,9 C 83 % 1026,9 hPa 0,0 l/m 1,4 km/h (1 Bft) NO 45 -1,7 C 0,9 C
13.02.2013 15:51 0,8 C 81 % 1026,9 hPa 0,0 l/m 2,5 km/h (1 Bft) N 360 -2,1 C 0,8 C
13.02.2013 15:56 0,6 C 80 % 1027,1 hPa 0,0 l/m 3,2 km/h (1 Bft) N 360 -2,4 C 0,6 C
13.02.2013 16:01 0,4 C 80 % 1027,1 hPa 0,0 l/m 5,8 km/h (2 Bft) NO 45 -2,6 C -1,5 C
13.02.2013 16:06 0,3 C 81 % 1027,2 hPa 0,0 l/m 2,5 km/h (1 Bft) O-NO 67 -2,6 C 0,3 C
13.02.2013 16:11 0,3 C 81 % 1027,2 hPa 0,0 l/m 8,3 km/h (2 Bft) N-NO 22 -2,6 C -2,5 C
13.02.2013 16:16 0,2 C 81 % 1027,2 hPa 0,0 l/m 7,2 km/h (2 Bft) N-NO 22 -2,7 C -2,2 C
13.02.2013 16:21 0,1 C 81 % 1027,3 hPa 0,0 l/m 6,5 km/h (2 Bft) N-NO 22 -2,8 C -2,1 C
13.02.2013 16:26 0,1 C 82 % 1027,6 hPa 0,0 l/m 6,8 km/h (2 Bft) N-NO 22 -2,6 C -2,2 C
13.02.2013 16:31 0,1 C 82 % 1027,5 hPa 0,0 l/m 2,2 km/h (1 Bft) NO 45 -2,6 C 0,1 C
13.02.2013 16:36 0,1 C 82 % 1027,6 hPa 0,0 l/m 4,3 km/h (1 Bft) N 360 -2,6 C 0,1 C
13.02.2013 16:41 0,0 C 82 % 1027,6 hPa 0,0 l/m 4,0 km/h (1 Bft) N-NO 22 -2,7 C 0,0 C
13.02.2013 16:46 -0,1 C 82 % 1027,5 hPa 0,0 l/m 4,0 km/h (1 Bft) N 360 -2,8 C -0,1 C
13.02.2013 16:51 -0,1 C 82 % 1027,7 hPa 0,0 l/m 6,1 km/h (2 Bft) N-NO 22 -2,8 C -2,2 C
13.02.2013 16:56 -0,1 C 82 % 1027,6 hPa 0,0 l/m 6,5 km/h (2 Bft) N-NO 22 -2,8 C -2,3 C
13.02.2013 17:01 -0,1 C 82 % 1027,6 hPa 0,0 l/m 0,0 km/h (0 Bft) N-NO 22 -2,8 C -0,1 C
13.02.2013 17:06 -0,1 C 82 % 1027,7 hPa 0,0 l/m 4,7 km/h (1 Bft) N-NO 22 -2,8 C -1,6 C
13.02.2013 17:11 -0,1 C 82 % 1027,7 hPa 0,0 l/m 4,0 km/h (1 Bft) N-NO 22 -2,8 C -0,1 C
13.02.2013 17:16 -0,1 C 82 % 1027,7 hPa 0,0 l/m 1,8 km/h (1 Bft) N-NO 22 -2,8 C -0,1 C
13.02.2013 17:21 -0,1 C 82 % 1027,6 hPa 0,0 l/m 3,2 km/h (1 Bft) N-NO 22 -2,8 C -0,1 C
13.02.2013 17:26 -0,1 C 83 % 1027,7 hPa 0,0 l/m 2,5 km/h (1 Bft) N-NO 22 -2,6 C -0,1 C
13.02.2013 17:31 -0,1 C 82 % 1027,5 hPa 0,0 l/m 2,2 km/h (1 Bft) NO 45 -2,8 C -0,1 C
13.02.2013 17:36 -0,1 C 83 % 1027,7 hPa 0,0 l/m 1,4 km/h (1 Bft) NO 45 -2,6 C -0,1 C
13.02.2013 17:41 -0,1 C 82 % 1027,7 hPa 0,0 l/m 2,5 km/h (1 Bft) N-NO 22 -2,8 C -0,1 C
13.02.2013 17:46 -0,1 C 82 % 1028,0 hPa 0,0 l/m 4,0 km/h (1 Bft) N-NO 22 -2,8 C -0,1 C
13.02.2013 17:51 -0,2 C 82 % 1027,8 hPa 0,0 l/m 1,4 km/h (1 Bft) O-NO 67 -2,9 C -0,2 C
13.02.2013 17:56 -0,2 C 81 % 1027,7 hPa 0,0 l/m 5,4 km/h (1 Bft) N-NO 22 -3,1 C -2,0 C
13.02.2013 18:01 -0,2 C 81 % 1027,8 hPa 0,0 l/m 3,2 km/h (1 Bft) N-NO 22 -3,1 C -0,2 C
13.02.2013 18:06 -0,2 C 81 % 1027,9 hPa 0,0 l/m 7,2 km/h (2 Bft) N-NO 22 -3,1 C -2,7 C
13.02.2013 18:11 -0,2 C 81 % 1027,9 hPa 0,0 l/m 5,4 km/h (1 Bft) N-NO 22 -3,1 C -2,0 C
13.02.2013 18:16 -0,2 C 81 % 1028,0 hPa 0,0 l/m 4,7 km/h (1 Bft) N 360 -3,1 C -1,7 C
13.02.2013 18:21 -0,2 C 81 % 1028,0 hPa 0,0 l/m 3,6 km/h (1 Bft) N-NO 22 -3,1 C -0,2 C
13.02.2013 18:26 -0,2 C 81 % 1028,0 hPa 0,0 l/m 3,6 km/h (1 Bft) N-NO 22 -3,1 C -0,2 C
13.02.2013 18:31 -0,3 C 81 % 1028,0 hPa 0,0 l/m 3,6 km/h (1 Bft) N 360 -3,2 C -0,3 C
13.02.2013 18:36 -0,4 C 81 % 1028,1 hPa 0,0 l/m 4,7 km/h (1 Bft) N-NO 22 -3,3 C -1,9 C
13.02.2013 18:41 -0,4 C 81 % 1028,0 hPa 0,0 l/m 4,7 km/h (1 Bft) N-NO 22 -3,3 C -1,9 C
13.02.2013 18:46 -0,4 C 81 % 1028,0 hPa 0,0 l/m 2,5 km/h (1 Bft) N-NO 22 -3,3 C -0,4 C
13.02.2013 18:51 -0,5 C 81 % 1028,0 hPa 0,0 l/m 5,0 km/h (1 Bft) N-NO 22 -3,3 C -2,2 C
13.02.2013 18:56 -0,5 C 81 % 1027,8 hPa 0,0 l/m 4,0 km/h (1 Bft) N-NO 22 -3,3 C -0,5 C
13.02.2013 19:01 -0,6 C 81 % 1027,9 hPa 0,0 l/m 3,2 km/h (1 Bft) N-NO 22 -3,4 C -0,6 C
13.02.2013 19:06 -0,6 C 81 % 1027,8 hPa 0,0 l/m 1,4 km/h (1 Bft) N-NO 22 -3,4 C -0,6 C
13.02.2013 19:11 -0,6 C 81 % 1027,8 hPa 0,0 l/m 2,5 km/h (1 Bft) NO 45 -3,4 C -0,6 C
13.02.2013 19:16 -0,6 C 81 % 1027,9 hPa 0,0 l/m 0,0 km/h (0 Bft) O-NO 67 -3,4 C -0,6 C
13.02.2013 19:21 -0,6 C 81 % 1028,0 hPa 0,0 l/m 2,9 km/h (1 Bft) O-NO 67 -3,4 C -0,6 C
13.02.2013 19:26 -0,6 C 81 % 1028,0 hPa 0,0 l/m 2,2 km/h (1 Bft) N-NO 22 -3,4 C -0,6 C
13.02.2013 19:31 -0,6 C 81 % 1028,1 hPa 0,0 l/m 4,0 km/h (1 Bft) N-NO 22 -3,4 C -0,6 C
13.02.2013 19:36 -0,6 C 81 % 1028,0 hPa 0,0 l/m 2,2 km/h (1 Bft) N-NO 22 -3,4 C -0,6 C
13.02.2013 19:41 -0,6 C 81 % 1028,1 hPa 0,0 l/m 2,5 km/h (1 Bft) N 360 -3,4 C -0,6 C
13.02.2013 19:46 -0,6 C 81 % 1028,2 hPa 0,0 l/m 1,8 km/h (1 Bft) N-NO 22 -3,4 C -0,6 C
13.02.2013 19:51 -0,6 C 81 % 1028,2 hPa 0,0 l/m 0,0 km/h (0 Bft) N-NO 22 -3,4 C -0,6 C
13.02.2013 19:56 -0,6 C 81 % 1028,3 hPa 0,0 l/m 0,0 km/h (0 Bft) N-NO 22 -3,4 C -0,6 C
13.02.2013 20:01 -0,6 C 82 % 1028,3 hPa 0,0 l/m 0,0 km/h (0 Bft) NO 45 -3,3 C -0,6 C
13.02.2013 20:06 -0,7 C 82 % 1028,3 hPa 0,0 l/m 0,0 km/h (0 Bft) N-NO 22 -3,4 C -0,7 C
13.02.2013 20:11 -0,6 C 82 % 1028,3 hPa 0,0 l/m 0,0 km/h (0 Bft) N-NO 22 -3,3 C -0,6 C
13.02.2013 20:16 -0,6 C 82 % 1028,2 hPa 0,0 l/m 0,0 km/h (0 Bft) N-NO 22 -3,3 C -0,6 C
13.02.2013 20:21 -0,6 C 82 % 1028,1 hPa 0,0 l/m 2,9 km/h (1 Bft) N-NO 22 -3,3 C -0,6 C
13.02.2013 20:26 -0,6 C 82 % 1028,1 hPa 0,0 l/m 0,0 km/h (0 Bft) NO 45 -3,3 C -0,6 C
13.02.2013 20:31 -0,7 C 82 % 1028,1 hPa 0,0 l/m 0,0 km/h (0 Bft) NO 45 -3,4 C -0,7 C
13.02.2013 20:36 -0,7 C 82 % 1028,2 hPa 0,0 l/m 0,0 km/h (0 Bft) NO 45 -3,4 C -0,7 C
13.02.2013 20:41 -0,7 C 82 % 1028,6 hPa 0,0 l/m 0,0 km/h (0 Bft) NO 45 -3,4 C -0,7 C
13.02.2013 20:46 -0,7 C 82 % 1028,5 hPa 0,0 l/m 0,0 km/h (0 Bft) NO 45 -3,4 C -0,7 C
13.02.2013 20:51 -0,7 C 82 % 1028,5 hPa 0,0 l/m 0,0 km/h (0 Bft) NO 45 -3,4 C -0,7 C
13.02.2013 20:56 -0,7 C 83 % 1028,5 hPa 0,0 l/m 0,0 km/h (0 Bft) NO 45 -3,2 C -0,7 C
13.02.2013 21:01 -0,7 C 83 % 1028,4 hPa 0,0 l/m 0,0 km/h (0 Bft) NO 45 -3,2 C -0,7 C
13.02.2013 21:06 -0,7 C 83 % 1028,6 hPa 0,0 l/m 0,0 km/h (0 Bft) NO 45 -3,2 C -0,7 C
13.02.2013 21:11 -0,7 C 83 % 1028,6 hPa 0,0 l/m 0,0 km/h (0 Bft) NO 45 -3,2 C -0,7 C
13.02.2013 21:16 -0,7 C 83 % 1028,6 hPa 0,0 l/m 0,0 km/h (0 Bft) NO 45 -3,2 C -0,7 C
13.02.2013 21:21 -0,7 C 83 % 1028,6 hPa 0,0 l/m 0,0 km/h (0 Bft) NO 45 -3,2 C -0,7 C
13.02.2013 21:26 -0,7 C 83 % 1028,5 hPa 0,0 l/m 0,0 km/h (0 Bft) N-NO 22 -3,2 C -0,7 C
13.02.2013 21:31 -0,7 C 83 % 1028,4 hPa 0,0 l/m 0,0 km/h (0 Bft) N-NO 22 -3,2 C -0,7 C
13.02.2013 21:36 -0,7 C 83 % 1028,5 hPa 0,0 l/m 0,0 km/h (0 Bft) N-NO 22 -3,2 C -0,7 C
13.02.2013 21:41 -0,7 C 83 % 1028,6 hPa 0,0 l/m 0,0 km/h (0 Bft) N-NW 337 -3,2 C -0,7 C
13.02.2013 21:46 -0,7 C 83 % 1028,6 hPa 0,0 l/m 0,0 km/h (0 Bft) NW 315 -3,2 C -0,7 C
13.02.2013 21:51 -0,7 C 83 % 1028,6 hPa 0,0 l/m 2,9 km/h (1 Bft) W-SW 247 -3,2 C -0,7 C
13.02.2013 21:56 -0,8 C 84 % 1028,6 hPa 0,0 l/m 0,0 km/h (0 Bft) W-SW 247 -3,2 C -0,8 C
13.02.2013 22:01 -0,9 C 84 % 1028,6 hPa 0,0 l/m 0,0 km/h (0 Bft) W-SW 247 -3,3 C -0,9 C
13.02.2013 22:06 -0,9 C 84 % 1028,6 hPa 0,0 l/m 0,0 km/h (0 Bft) W-SW 247 -3,3 C -0,9 C
13.02.2013 22:11 -1,0 C 84 % 1028,8 hPa 0,0 l/m 1,4 km/h (1 Bft) W-SW 247 -3,4 C -1,0 C
13.02.2013 22:16 -1,1 C 84 % 1028,6 hPa 0,0 l/m 0,0 km/h (0 Bft) NW 315 -3,4 C -1,1 C
13.02.2013 22:21 -1,1 C 84 % 1028,8 hPa 0,0 l/m 0,0 km/h (0 Bft) NW 315 -3,4 C -1,1 C
13.02.2013 22:26 -1,1 C 84 % 1028,8 hPa 0,0 l/m 0,0 km/h (0 Bft) W-NW 292 -3,4 C -1,1 C
13.02.2013 22:31 -1,1 C 84 % 1028,7 hPa 0,0 l/m 2,2 km/h (1 Bft) NW 315 -3,4 C -1,1 C
13.02.2013 22:36 -1,1 C 84 % 1028,8 hPa 0,0 l/m 0,0 km/h (0 Bft) W-NW 292 -3,4 C -1,1 C
13.02.2013 22:41 -1,1 C 84 % 1028,8 hPa 0,0 l/m 0,0 km/h (0 Bft) W-NW 292 -3,4 C -1,1 C
13.02.2013 22:46 -1,1 C 84 % 1028,8 hPa 0,0 l/m 0,0 km/h (0 Bft) NW 315 -3,4 C -1,1 C
13.02.2013 22:51 -1,1 C 85 % 1028,8 hPa 0,0 l/m 0,0 km/h (0 Bft) NW 315 -3,3 C -1,1 C
13.02.2013 22:56 -1,2 C 85 % 1028,7 hPa 0,0 l/m 0,0 km/h (0 Bft) NW 315 -3,4 C -1,2 C
13.02.2013 23:01 -1,2 C 85 % 1028,8 hPa 0,0 l/m 2,2 km/h (1 Bft) N-NW 337 -3,4 C -1,2 C
13.02.2013 23:06 -1,2 C 85 % 1028,7 hPa 0,0 l/m 0,0 km/h (0 Bft) NW 315 -3,4 C -1,2 C
13.02.2013 23:11 -1,2 C 85 % 1028,7 hPa 0,0 l/m 0,0 km/h (0 Bft) N-NW 337 -3,4 C -1,2 C
13.02.2013 23:16 -1,2 C 85 % 1028,9 hPa 0,0 l/m 0,0 km/h (0 Bft) N-NW 337 -3,4 C -1,2 C
13.02.2013 23:21 -1,2 C 85 % 1028,7 hPa 0,0 l/m 0,0 km/h (0 Bft) NW 315 -3,4 C -1,2 C
13.02.2013 23:26 -1,2 C 85 % 1028,9 hPa 0,0 l/m 3,2 km/h (1 Bft) N-NW 337 -3,4 C -1,2 C
13.02.2013 23:31 -1,2 C 86 % 1028,8 hPa 0,0 l/m 0,0 km/h (0 Bft) N-NW 337 -3,2 C -1,2 C
13.02.2013 23:36 -1,2 C 86 % 1029,0 hPa 0,0 l/m 2,9 km/h (1 Bft) W 270 -3,2 C -1,2 C
13.02.2013 23:41 -1,2 C 86 % 1028,8 hPa 0,0 l/m 0,0 km/h (0 Bft) NW 315 -3,2 C -1,2 C
13.02.2013 23:46 -1,2 C 86 % 1028,9 hPa 0,0 l/m 1,4 km/h (1 Bft) NW 315 -3,2 C -1,2 C
13.02.2013 23:51 -1,2 C 86 % 1028,8 hPa 0,0 l/m 1,1 km/h (1 Bft) NW 315 -3,2 C -1,2 C
13.02.2013 23:56 -1,2 C 86 % 1029,0 hPa 0,0 l/m 0,0 km/h (0 Bft) NW 315 -3,2 C -1,2 C
_ Min-Zeit 07:21 15:56 00:01 - 00:16 - - 07:21 07:06
Minimum _ -5,9 C 80 % 1018,8 hPa - 0,0 km/h (0 Bft) - - -7,3 C -9,1 C
_ Max-Zeit 14:06 09:51 23:36 00:01 16:11 - - 14:01 14:06
Maximum _ 1,3 C 93 % 1029,0 hPa 0,0 l/m 8,3 km/h
N-NO (2 Bft)
- - -0,9 C 1,3 C
Durchschnitt _ -2,1 C 87 % 1024,8 hPa #0,0 l/m 2,1 km/h (1 Bft) N-NO - -4,0 C -2,4 C
(c) by David Heller